| time (UTC) | temp F | wind direction | speed knots | gust knots | rain 1hr in | rain 24hr in | rain mn in | humidity % | barometer mb |
| 20260509043618 | 54 | 21 | 0.0 | 0.9 | 0.00 | 0.00 | 0.00 | 89 | 1006.6 |
| 20260509043113 | 54 | 21 | 0.0 | 0.9 | 0.00 | 0.00 | 0.00 | 89 | 1006.9 |
| 20260509042607 | 54 | 21 | 0.0 | 0.9 | 0.00 | 0.00 | 0.00 | 89 | 1006.9 |
| 20260509042101 | 54 | 21 | 0.0 | 0.9 | 0.00 | 0.00 | 0.00 | 89 | 1006.7 |
| 20260509041555 | 54 | 21 | 0.9 | 0.9 | 0.00 | 0.00 | 0.00 | 88 | 1006.9 |
| 20260509041049 | 54 | 21 | 0.9 | 0.9 | 0.00 | 0.00 | 0.00 | 88 | 1006.9 |
| 20260509040542 | 55 | 21 | 0.9 | 1.7 | 0.00 | 0.00 | 0.00 | 88 | 1006.9 |
| 20260509040255 | 55 | 21 | 0.9 | 1.7 | 0.00 | 0.00 | 0.00 | 88 | 1006.9 |
| 20260509035530 | 55 | 21 | 0.0 | 0.9 | 0.00 | 0.00 | 0.00 | 87 | 1007.1 |
| 20260509035025 | 55 | 21 | 0.9 | 0.9 | 0.00 | 0.00 | 0.00 | 87 | 1007.0 |
| 20260509034518 | 55 | 21 | 0.0 | 0.9 | 0.00 | 0.00 | 0.00 | 87 | 1006.9 |
| 20260509034013 | 55 | 21 | 0.0 | 0.9 | 0.00 | 0.00 | 0.00 | 86 | 1006.9 |
| 20260509033507 | 55 | 21 | 0.0 | 0.9 | 0.00 | 0.00 | 0.00 | 86 | 1007.0 |
| 20260509033001 | 55 | 21 | 0.0 | 0.9 | 0.00 | 0.00 | 0.00 | 86 | 1007.1 |
| 20260509032455 | 55 | 21 | 0.0 | 0.9 | 0.00 | 0.00 | 0.00 | 85 | 1007.1 |
| 20260509031948 | 55 | 21 | 0.0 | 0.9 | 0.00 | 0.00 | 0.00 | 85 | 1007.2 |
| 20260509031443 | 55 | 21 | 0.0 | 0.9 | 0.00 | 0.00 | 0.00 | 85 | 1007.2 |
| 20260509030937 | 56 | 21 | 0.0 | 0.9 | 0.00 | 0.00 | 0.00 | 84 | 1007.3 |
| 20260509030638 | 56 | 21 | 0.0 | 0.9 | 0.00 | 0.00 | 0.00 | 84 | 1007.4 |
| 20260509030521 | 56 | 21 | 0.0 | 0.9 | 0.00 | 0.00 | 0.00 | 84 | 1007.4 |
| 20260509025656 | 56 | 21 | 0.0 | 0.9 | 0.00 | 0.00 | 0.00 | 83 | 1007.4 |
| 20260509024913 | 56 | 21 | 0.9 | 1.7 | 0.00 | 0.00 | 0.00 | 83 | 1007.4 |
| 20260509024407 | 56 | 21 | 0.9 | 1.7 | 0.00 | 0.00 | 0.00 | 82 | 1007.4 |
| 20260509023901 | 56 | 21 | 0.9 | 2.6 | 0.00 | 0.00 | 0.00 | 82 | 1007.4 |
| 20260509023355 | 56 | 33 | 0.9 | 2.6 | 0.00 | 0.00 | 0.00 | 82 | 1007.6 |
| 20260509022849 | 56 | 12 | 0.9 | 2.6 | 0.00 | 0.00 | 0.00 | 82 | 1007.5 |
| 20260509022342 | 56 | 351 | 0.9 | 2.6 | 0.00 | 0.00 | 0.00 | 81 | 1007.4 |
| 20260509021837 | 56 | 350 | 1.7 | 3.5 | 0.00 | 0.00 | 0.00 | 81 | 1007.4 |
| 20260509021813 | 57 | 22 | 1.7 | 3.5 | 0.00 | 0.00 | 0.00 | 81 | 1007.5 |
| 20260509020824 | 57 | 356 | 1.7 | 2.6 | 0.00 | 0.00 | 0.00 | 81 | 1007.5 |
| 20260509020319 | 57 | 47 | 1.7 | 3.5 | 0.00 | 0.00 | 0.00 | 80 | 1007.4 |
| 20260509020042 | 57 | 17 | 2.6 | 3.5 | 0.00 | 0.00 | 0.00 | 80 | 1007.2 |
| 20260509015307 | 57 | 0 | 2.6 | 3.5 | 0.00 | 0.00 | 0.00 | 79 | 1007.2 |
| 20260509014801 | 58 | 355 | 2.6 | 3.5 | 0.00 | 0.00 | 0.00 | 79 | 1007.1 |
| 20260509014255 | 58 | 2 | 1.7 | 3.5 | 0.00 | 0.00 | 0.00 | 78 | 1007.0 |
| 20260509013750 | 58 | 22 | 1.7 | 1.7 | 0.00 | 0.00 | 0.00 | 78 | 1006.7 |
| 20260509013503 | 58 | 21 | 0.9 | 1.7 | 0.00 | 0.00 | 0.00 | 77 | 1006.5 |
| 20260509012737 | 58 | 22 | 0.9 | 1.7 | 0.00 | 0.00 | 0.00 | 77 | 1006.5 |
| 20260509012502 | 58 | 22 | 1.7 | 1.7 | 0.00 | 0.00 | 0.00 | 77 | 1006.5 |
| 20260509011725 | 58 | 22 | 1.7 | 2.6 | 0.00 | 0.00 | 0.00 | 76 | 1006.4 |
| 20260509011445 | 59 | 353 | 1.7 | 3.5 | 0.00 | 0.00 | 0.00 | 76 | 1006.4 |
| 20260509010713 | 59 | 343 | 1.7 | 3.5 | 0.00 | 0.00 | 0.00 | 75 | 1006.5 |
| 20260509010206 | 59 | 12 | 0.9 | 2.6 | 0.00 | 0.00 | 0.00 | 75 | 1006.5 |
| 20260509005701 | 60 | 353 | 0.9 | 2.6 | 0.00 | 0.00 | 0.00 | 74 | 1006.5 |
| 20260509005155 | 61 | 0 | 1.7 | 3.5 | 0.00 | 0.00 | 0.00 | 72 | 1006.5 |
| 20260509004906 | 62 | 3 | 1.7 | 3.5 | 0.00 | 0.00 | 0.00 | 69 | 1006.4 |
| 20260509004145 | 63 | 0 | 0.9 | 3.5 | 0.00 | 0.00 | 0.00 | 63 | 1006.5 |
| 20260509003646 | 64 | 200 | 0.0 | 0.9 | 0.00 | 0.00 | 0.00 | 58 | 1006.3 |
| 20260509003148 | 64 | 200 | 0.0 | 0.9 | 0.00 | 0.00 | 0.00 | 57 | 1006.1 |
| 20260509002646 | 64 | 200 | 0.0 | 0.9 | 0.00 | 0.00 | 0.00 | 56 | 1006.0 |
| 20260509002144 | 64 | 200 | 0.0 | 0.9 | 0.00 | 0.00 | 0.00 | 56 | 1006.0 |
| 20260509001644 | 64 | 200 | 0.0 | 0.9 | 0.00 | 0.00 | 0.00 | 56 | 1006.0 |
| 20260509001144 | 64 | 200 | 0.0 | 0.9 | 0.00 | 0.00 | 0.00 | 56 | 1006.1 |
| 20260509000907 | 64 | 200 | 0.0 | 0.9 | 0.00 | 0.00 | 0.00 | 56 | 1006.1 |
| 20260509000142 | 64 | 200 | 0.0 | 0.9 | 0.00 | 0.00 | 0.00 | 56 | 1006.2 |
| 20260508235643 | 64 | 200 | 0.0 | 0.9 | 0.00 | 0.00 | 0.00 | 56 | 1006.3 |
| 20260508235140 | 64 | 200 | 0.0 | 0.9 | 0.00 | 0.00 | 0.00 | 57 | 1006.3 |
| 20260508234639 | 64 | 200 | 0.0 | 0.9 | 0.00 | 0.00 | 0.00 | 57 | 1006.3 |
| 20260508234138 | 65 | 200 | 0.0 | 0.9 | 0.00 | 0.00 | 0.00 | 57 | 1006.1 |
| 20260508233637 | 65 | 200 | 0.0 | 0.9 | 0.00 | 0.00 | 0.00 | 57 | 1006.0 |
| 20260508233138 | 65 | 200 | 0.0 | 0.9 | 0.00 | 0.00 | 0.00 | 56 | 1005.9 |
| 20260508232638 | 65 | 200 | 0.0 | 1.7 | 0.00 | 0.00 | 0.00 | 56 | 1005.9 |
| 20260508232137 | 65 | 200 | 0.9 | 1.7 | 0.00 | 0.00 | 0.00 | 56 | 1006.0 |
| 20260508231857 | 65 | 200 | 0.0 | 1.7 | 0.00 | 0.00 | 0.00 | 56 | 1005.9 |
| 20260508231134 | 65 | 200 | 0.0 | 1.7 | 0.00 | 0.00 | 0.00 | 56 | 1006.0 |
| 20260508230629 | 65 | 200 | 0.9 | 1.7 | 0.00 | 0.00 | 0.00 | 57 | 1006.1 |
| 20260508230126 | 65 | 200 | 0.0 | 1.7 | 0.00 | 0.00 | 0.00 | 56 | 1006.0 |
| 20260508225627 | 65 | 200 | 0.9 | 1.7 | 0.00 | 0.00 | 0.00 | 57 | 1006.0 |
| 20260508225127 | 65 | 199 | 0.9 | 1.7 | 0.00 | 0.00 | 0.00 | 56 | 1006.0 |
| 20260508224626 | 65 | 199 | 0.0 | 1.7 | 0.00 | 0.00 | 0.00 | 56 | 1006.0 |
| 20260508224126 | 65 | 199 | 0.0 | 0.9 | 0.00 | 0.00 | 0.00 | 56 | 1005.9 |
| 20260508223626 | 66 | 200 | 0.0 | 0.9 | 0.00 | 0.00 | 0.00 | 55 | 1005.9 |
| 20260508223126 | 66 | 200 | 0.0 | 0.9 | 0.00 | 0.00 | 0.00 | 54 | 1005.8 |
| 20260508222851 | 66 | 199 | 0.0 | 0.9 | 0.00 | 0.00 | 0.00 | 53 | 1005.8 |
| 20260508222127 | 67 | 200 | 0.0 | 0.9 | 0.00 | 0.00 | 0.00 | 53 | 1005.9 |
| 20260508221621 | 67 | 199 | 0.0 | 0.9 | 0.00 | 0.00 | 0.00 | 52 | 1005.8 |
| 20260508221343 | 67 | 199 | 0.0 | 0.9 | 0.00 | 0.00 | 0.00 | 51 | 1005.8 |
| 20260508220624 | 67 | 200 | 0.0 | 0.9 | 0.00 | 0.00 | 0.00 | 51 | 1005.7 |
| 20260508220344 | 67 | 200 | 0.0 | 0.9 | 0.00 | 0.00 | 0.00 | 50 | 1005.8 |
| 20260508215846 | 67 | 200 | 0.0 | 3.5 | 0.00 | 0.00 | 0.00 | 49 | 1005.8 |
| 20260508215121 | 68 | 199 | 0.9 | 4.3 | 0.00 | 0.00 | 0.00 | 49 | 1005.8 |
| 20260508214621 | 68 | 240 | 0.9 | 4.3 | 0.00 | 0.00 | 0.00 | 49 | 1005.8 |
| 20260508214121 | 68 | 258 | 0.9 | 5.2 | 0.00 | 0.00 | 0.00 | 48 | 1005.7 |
| 20260508213844 | 68 | 247 | 1.7 | 5.2 | 0.00 | 0.00 | 0.00 | 48 | 1005.7 |
| 20260508213604 | 68 | 206 | 1.7 | 6.1 | 0.00 | 0.00 | 0.00 | 48 | 1005.6 |
| 20260508212619 | 68 | 230 | 1.7 | 6.1 | 0.00 | 0.00 | 0.00 | 47 | 1005.7 |
| 20260508212119 | 68 | 251 | 1.7 | 5.2 | 0.00 | 0.00 | 0.00 | 48 | 1005.9 |
| 20260508211619 | 68 | 230 | 1.7 | 7.0 | 0.00 | 0.00 | 0.00 | 50 | 1005.8 |
| 20260508211119 | 68 | 218 | 1.7 | 7.0 | 0.00 | 0.00 | 0.00 | 48 | 1005.8 |
| 20260508210618 | 69 | 235 | 1.7 | 5.2 | 0.00 | 0.00 | 0.00 | 47 | 1005.9 |
| 20260508210117 | 69 | 206 | 0.9 | 4.3 | 0.00 | 0.00 | 0.00 | 48 | 1006.0 |
| 20260508205619 | 69 | 210 | 0.9 | 4.3 | 0.00 | 0.00 | 0.00 | 47 | 1006.0 |
| 20260508205119 | 69 | 230 | 1.7 | 7.0 | 0.00 | 0.00 | 0.00 | 47 | 1006.1 |
| 20260508204839 | 69 | 218 | 1.7 | 7.0 | 0.00 | 0.00 | 0.00 | 48 | 1006.2 |
| 20260508204115 | 69 | 218 | 1.7 | 6.1 | 0.00 | 0.00 | 0.00 | 47 | 1006.4 |
| 20260508203614 | 69 | 199 | 1.7 | 6.1 | 0.00 | 0.00 | 0.00 | 48 | 1006.5 |
| 20260508203115 | 68 | 213 | 1.7 | 5.2 | 0.00 | 0.00 | 0.00 | 48 | 1006.7 |
| 20260508202833 | 68 | 228 | 0.9 | 3.5 | 0.00 | 0.00 | 0.00 | 48 | 1006.9 |
| 20260508202111 | 69 | 230 | 0.9 | 3.5 | 0.00 | 0.00 | 0.00 | 49 | 1006.9 |
| 20260508201610 | 69 | 264 | 1.7 | 4.3 | 0.00 | 0.00 | 0.00 | 47 | 1007.0 |
| 20260508201550 | 69 | 242 | 1.7 | 7.8 | 0.00 | 0.00 | 0.00 | 48 | 1007.1 |
| 20260508200609 | 70 | 215 | 1.7 | 7.8 | 0.00 | 0.00 | 0.00 | 45 | 1007.1 |
| 20260508200108 | 70 | 189 | 2.6 | 7.8 | 0.00 | 0.00 | 0.00 | 46 | 1007.1 |
| 20260508195608 | 69 | 234 | 2.6 | 7.8 | 0.00 | 0.00 | 0.00 | 46 | 1007.2 |
| 20260508195108 | 69 | 174 | 2.6 | 9.6 | 0.00 | 0.00 | 0.00 | 44 | 1007.3 |
| 20260508194607 | 68 | 231 | 1.7 | 9.6 | 0.00 | 0.00 | 0.00 | 45 | 1007.2 |
| 20260508194109 | 68 | 237 | 1.7 | 8.7 | 0.00 | 0.00 | 0.00 | 48 | 1007.3 |
| 20260508193839 | 68 | 336 | 1.7 | 8.7 | 0.00 | 0.00 | 0.00 | 46 | 1007.4 |
| 20260508193101 | 68 | 241 | 2.6 | 9.6 | 0.00 | 0.00 | 0.00 | 46 | 1007.5 |
| 20260508192554 | 68 | 242 | 2.6 | 9.6 | 0.00 | 0.00 | 0.00 | 45 | 1007.5 |
| 20260508192055 | 69 | 212 | 2.6 | 7.8 | 0.00 | 0.00 | 0.00 | 45 | 1007.5 |
| 20260508191555 | 69 | 244 | 2.6 | 8.7 | 0.00 | 0.00 | 0.00 | 44 | 1007.6 |
| 20260508191054 | 70 | 256 | 2.6 | 8.7 | 0.00 | 0.00 | 0.00 | 46 | 1007.5 |
| 20260508190555 | 70 | 233 | 2.6 | 7.8 | 0.00 | 0.00 | 0.00 | 44 | 1007.6 |
| 20260508190317 | 71 | 256 | 3.5 | 8.7 | 0.00 | 0.00 | 0.00 | 44 | 1007.6 |
| 20260508185553 | 71 | 235 | 3.5 | 9.6 | 0.00 | 0.00 | 0.00 | 48 | 1007.6 |
| 20260508185053 | 70 | 242 | 2.6 | 9.6 | 0.00 | 0.00 | 0.00 | 46 | 1007.7 |
| 20260508184817 | 70 | 222 | 2.6 | 7.8 | 0.00 | 0.00 | 0.00 | 46 | 1007.8 |
| 20260508184055 | 70 | 236 | 2.6 | 8.7 | 0.00 | 0.00 | 0.00 | 46 | 1007.9 |
| 20260508183554 | 70 | 242 | 2.6 | 8.7 | 0.00 | 0.00 | 0.00 | 44 | 1008.0 |
| 20260508183055 | 71 | 199 | 2.6 | 8.7 | 0.00 | 0.00 | 0.00 | 47 | 1008.1 |
| 20260508182553 | 70 | 249 | 3.5 | 8.7 | 0.00 | 0.00 | 0.00 | 44 | 1008.0 |
| 20260508182054 | 69 | 216 | 2.6 | 8.7 | 0.00 | 0.00 | 0.00 | 48 | 1008.1 |
| 20260508181553 | 69 | 327 | 2.6 | 7.0 | 0.00 | 0.00 | 0.00 | 46 | 1008.2 |
| 20260508181053 | 69 | 251 | 2.6 | 7.8 | 0.00 | 0.00 | 0.00 | 45 | 1008.3 |
| 20260508180817 | 69 | 245 | 2.6 | 8.7 | 0.00 | 0.00 | 0.00 | 45 | 1008.4 |
| 20260508180047 | 69 | 250 | 1.7 | 8.7 | 0.00 | 0.00 | 0.00 | 49 | 1008.6 |
| 20260508175542 | 69 | 211 | 1.7 | 7.8 | 0.00 | 0.00 | 0.00 | 47 | 1008.7 |
| 20260508175035 | 70 | 146 | 2.6 | 11.3 | 0.00 | 0.00 | 0.00 | 46 | 1008.8 |
| 20260508174530 | 70 | 240 | 2.6 | 11.3 | 0.00 | 0.00 | 0.00 | 45 | 1008.8 |
| 20260508174024 | 71 | 235 | 2.6 | 9.6 | 0.00 | 0.00 | 0.00 | 45 | 1008.9 |
| 20260508173518 | 71 | 248 | 3.5 | 10.4 | 0.00 | 0.00 | 0.00 | 47 | 1009.0 |
| 20260508173011 | 70 | 247 | 3.5 | 10.4 | 0.00 | 0.00 | 0.00 | 47 | 1008.9 |
| 20260508172506 | 70 | 232 | 2.6 | 6.1 | 0.00 | 0.00 | 0.00 | 47 | 1009.0 |
| 20260508172444 | 69 | 293 | 1.7 | 5.2 | 0.00 | 0.00 | 0.00 | 49 | 1009.2 |
| 20260508171453 | 69 | 269 | 1.7 | 7.8 | 0.00 | 0.00 | 0.00 | 49 | 1009.2 |
| 20260508170948 | 69 | 223 | 2.6 | 7.8 | 0.00 | 0.00 | 0.00 | 50 | 1009.4 |
| 20260508170441 | 69 | 240 | 2.6 | 10.4 | 0.00 | 0.00 | 0.00 | 46 | 1009.3 |
| 20260508170152 | 70 | 245 | 2.6 | 10.4 | 0.00 | 0.00 | 0.00 | 49 | 1009.5 |
| 20260508165429 | 69 | 242 | 2.6 | 7.8 | 0.00 | 0.00 | 0.00 | 48 | 1009.5 |
| 20260508164924 | 69 | 170 | 1.7 | 7.8 | 0.00 | 0.00 | 0.00 | 47 | 1009.6 |
| 20260508164418 | 70 | 251 | 1.7 | 8.7 | 0.00 | 0.00 | 0.00 | 48 | 1009.7 |
| 20260508163912 | 70 | 234 | 2.6 | 8.7 | 0.00 | 0.00 | 0.00 | 46 | 1009.9 |
| 20260508163408 | 71 | 122 | 2.6 | 7.0 | 0.00 | 0.00 | 0.00 | 51 | 1009.9 |
| 20260508162900 | 70 | 205 | 3.5 | 9.6 | 0.00 | 0.00 | 0.00 | 47 | 1010.0 |
| 20260508162354 | 70 | 232 | 2.6 | 9.6 | 0.00 | 0.00 | 0.00 | 48 | 1010.1 |
| 20260508161847 | 70 | 131 | 2.6 | 8.7 | 0.00 | 0.00 | 0.00 | 49 | 1010.2 |
| 20260508161342 | 69 | 259 | 2.6 | 7.8 | 0.00 | 0.00 | 0.00 | 50 | 1010.1 |
| 20260508160836 | 69 | 228 | 2.6 | 9.6 | 0.00 | 0.00 | 0.00 | 48 | 1010.3 |
| 20260508160331 | 69 | 141 | 2.6 | 9.6 | 0.00 | 0.00 | 0.00 | 49 | 1010.2 |
| 20260508155824 | 69 | 166 | 2.6 | 8.7 | 0.00 | 0.00 | 0.00 | 49 | 1010.2 |
| 20260508155539 | 68 | 223 | 2.6 | 8.7 | 0.00 | 0.00 | 0.00 | 52 | 1010.3 |
| 20260508155032 | 67 | 264 | 3.5 | 12.2 | 0.00 | 0.00 | 0.00 | 51 | 1010.3 |
| 20260508154306 | 67 | 254 | 4.3 | 12.2 | 0.00 | 0.00 | 0.00 | 51 | 1010.4 |
| 20260508153800 | 67 | 181 | 3.5 | 11.3 | 0.00 | 0.00 | 0.00 | 50 | 1010.4 |
| 20260508153254 | 67 | 251 | 3.5 | 14.8 | 0.00 | 0.00 | 0.00 | 49 | 1010.4 |
| 20260508152748 | 66 | 348 | 3.5 | 14.8 | 0.00 | 0.00 | 0.00 | 51 | 1010.5 |
| 20260508152242 | 66 | 258 | 2.6 | 8.7 | 0.00 | 0.00 | 0.00 | 53 | 1010.6 |
| 20260508151735 | 66 | 213 | 2.6 | 7.8 | 0.00 | 0.00 | 0.00 | 54 | 1010.6 |
| 20260508151230 | 65 | 196 | 3.5 | 10.4 | 0.00 | 0.00 | 0.00 | 53 | 1010.7 |
| 20260508150939 | 65 | 233 | 3.5 | 10.4 | 0.00 | 0.00 | 0.00 | 51 | 1010.8 |
| 20260508150443 | 65 | 242 | 2.6 | 6.1 | 0.00 | 0.00 | 0.00 | 52 | 1010.9 |
| 20260508145712 | 65 | 241 | 2.6 | 7.0 | 0.00 | 0.00 | 0.00 | 53 | 1010.9 |
| 20260508145205 | 65 | 265 | 2.6 | 9.6 | 0.00 | 0.00 | 0.00 | 54 | 1010.9 |
| 20260508144659 | 64 | 244 | 3.5 | 11.3 | 0.00 | 0.00 | 0.00 | 54 | 1011.0 |
| 20260508144154 | 64 | 241 | 3.5 | 11.3 | 0.00 | 0.00 | 0.00 | 52 | 1011.2 |
| 20260508143648 | 64 | 243 | 3.5 | 7.8 | 0.00 | 0.00 | 0.00 | 52 | 1011.0 |
| 20260508143141 | 64 | 260 | 2.6 | 6.1 | 0.00 | 0.00 | 0.00 | 53 | 1011.2 |
| 20260508142635 | 63 | 136 | 2.6 | 7.8 | 0.00 | 0.00 | 0.00 | 55 | 1011.2 |
| 20260508142130 | 63 | 202 | 2.6 | 9.6 | 0.00 | 0.00 | 0.00 | 53 | 1011.2 |
| 20260508141623 | 62 | 209 | 2.6 | 9.6 | 0.00 | 0.00 | 0.00 | 55 | 1011.3 |
| 20260508141118 | 62 | 199 | 1.7 | 5.2 | 0.00 | 0.00 | 0.00 | 58 | 1011.3 |
| 20260508140612 | 61 | 97 | 1.7 | 5.2 | 0.00 | 0.00 | 0.00 | 58 | 1011.4 |
| 20260508140327 | 61 | 232 | 1.7 | 6.1 | 0.00 | 0.00 | 0.00 | 58 | 1011.5 |
| 20260508135559 | 60 | 265 | 2.6 | 6.1 | 0.00 | 0.00 | 0.00 | 60 | 1011.5 |
| 20260508135054 | 59 | 200 | 1.7 | 5.2 | 0.00 | 0.00 | 0.00 | 62 | 1011.5 |
| 20260508134547 | 58 | 254 | 1.7 | 5.2 | 0.00 | 0.00 | 0.00 | 64 | 1011.5 |
| 20260508134042 | 58 | 270 | 1.7 | 5.2 | 0.00 | 0.00 | 0.00 | 65 | 1011.6 |
| 20260508133536 | 57 | 221 | 1.7 | 7.0 | 0.00 | 0.00 | 0.00 | 66 | 1011.5 |
| 20260508133036 | 56 | 200 | 1.7 | 7.0 | 0.00 | 0.00 | 0.00 | 66 | 1011.5 |
| 20260508132536 | 55 | 215 | 1.7 | 5.2 | 0.00 | 0.00 | 0.00 | 66 | 1011.5 |
| 20260508132036 | 54 | 259 | 0.9 | 3.5 | 0.00 | 0.00 | 0.00 | 69 | 1011.5 |
| 20260508131753 | 54 | 262 | 0.9 | 3.5 | 0.00 | 0.00 | 0.00 | 71 | 1011.5 |
| 20260508131033 | 53 | 151 | 0.9 | 3.5 | 0.00 | 0.00 | 0.00 | 72 | 1011.6 |
| 20260508130534 | 52 | 258 | 0.9 | 3.5 | 0.00 | 0.00 | 0.00 | 72 | 1011.6 |
| 20260508130254 | 51 | 230 | 1.7 | 2.6 | 0.00 | 0.00 | 0.00 | 74 | 1011.5 |
| 20260508125530 | 51 | 230 | 1.7 | 2.6 | 0.00 | 0.00 | 0.00 | 75 | 1011.6 |
| 20260508125028 | 50 | 230 | 1.7 | 4.3 | 0.00 | 0.00 | 0.00 | 76 | 1011.6 |
| 20260508124529 | 49 | 230 | 1.7 | 4.3 | 0.00 | 0.00 | 0.00 | 76 | 1011.6 |
| 20260508124027 | 49 | 222 | 1.7 | 3.5 | 0.00 | 0.00 | 0.00 | 76 | 1011.5 |
| 20260508123526 | 49 | 228 | 1.7 | 3.5 | 0.00 | 0.00 | 0.00 | 77 | 1011.5 |
| 20260508123026 | 48 | 241 | 1.7 | 3.5 | 0.00 | 0.00 | 0.00 | 78 | 1011.5 |
| 20260508122526 | 47 | 237 | 1.7 | 2.6 | 0.00 | 0.00 | 0.00 | 79 | 1011.4 |
| 20260508122246 | 47 | 237 | 1.7 | 2.6 | 0.00 | 0.00 | 0.00 | 80 | 1011.3 |
| 20260508121523 | 46 | 237 | 1.7 | 2.6 | 0.00 | 0.00 | 0.00 | 80 | 1011.3 |
| 20260508121244 | 46 | 237 | 1.7 | 2.6 | 0.00 | 0.00 | 0.00 | 81 | 1011.4 |
| 20260508120747 | 46 | 237 | 1.7 | 2.6 | 0.00 | 0.00 | 0.00 | 81 | 1011.4 |
| 20260508120022 | 45 | 237 | 1.7 | 1.7 | 0.00 | 0.00 | 0.00 | 81 | 1011.4 |
| 20260508115517 | 45 | 237 | 1.7 | 2.6 | 0.00 | 0.00 | 0.00 | 81 | 1011.4 |
| 20260508115010 | 45 | 237 | 1.7 | 2.6 | 0.00 | 0.00 | 0.00 | 82 | 1011.3 |
| 20260508114510 | 45 | 237 | 1.7 | 1.7 | 0.00 | 0.00 | 0.00 | 82 | 1011.4 |
| 20260508114010 | 44 | 237 | 1.7 | 1.7 | 0.00 | 0.00 | 0.00 | 82 | 1011.3 |
| 20260508113509 | 44 | 237 | 1.7 | 2.6 | 0.00 | 0.00 | 0.00 | 82 | 1011.3 |
| 20260508113007 | 44 | 237 | 1.7 | 2.6 | 0.00 | 0.00 | 0.00 | 82 | 1011.0 |
| 20260508112506 | 44 | 237 | 1.7 | 2.6 | 0.00 | 0.00 | 0.00 | 81 | 1011.0 |
| 20260508112006 | 44 | 237 | 1.7 | 2.6 | 0.00 | 0.00 | 0.00 | 81 | 1010.9 |
| 20260508111506 | 44 | 237 | 1.7 | 2.6 | 0.00 | 0.00 | 0.00 | 81 | 1011.0 |
| 20260508111003 | 44 | 237 | 0.9 | 1.7 | 0.00 | 0.00 | 0.00 | 81 | 1010.9 |
| 20260508110501 | 44 | 237 | 0.9 | 1.7 | 0.00 | 0.00 | 0.00 | 81 | 1011.0 |
| 20260508110000 | 44 | 237 | 0.0 | 1.7 | 0.00 | 0.00 | 0.00 | 81 | 1011.0 |
| 20260508105940 | 45 | 237 | 0.9 | 2.6 | 0.00 | 0.00 | 0.00 | 81 | 1010.8 |
| 20260508105437 | 45 | 237 | 1.7 | 2.6 | 0.00 | 0.00 | 0.00 | 82 | 1010.7 |
| 20260508104455 | 45 | 237 | 1.7 | 2.6 | 0.00 | 0.00 | 0.00 | 81 | 1010.7 |
| 20260508103954 | 45 | 237 | 0.9 | 2.6 | 0.00 | 0.00 | 0.00 | 81 | 1010.7 |
| 20260508103710 | 44 | 237 | 0.9 | 1.7 | 0.00 | 0.00 | 0.00 | 82 | 1010.8 |
| 20260508103215 | 44 | 237 | 0.9 | 1.7 | 0.00 | 0.00 | 0.00 | 82 | 1010.8 |
| 20260508102714 | 44 | 237 | 0.9 | 0.9 | 0.00 | 0.00 | 0.00 | 82 | 1010.8 |
| 20260508101948 | 44 | 237 | 0.9 | 1.7 | 0.00 | 0.00 | 0.00 | 82 | 1010.8 |
| 20260508101450 | 44 | 237 | 0.9 | 1.7 | 0.00 | 0.00 | 0.00 | 82 | 1010.8 |
| 20260508100949 | 44 | 237 | 0.9 | 1.7 | 0.00 | 0.00 | 0.00 | 82 | 1010.8 |
| 20260508100449 | 44 | 237 | 0.9 | 1.7 | 0.00 | 0.00 | 0.00 | 82 | 1010.7 |
| 20260508095950 | 44 | 237 | 1.7 | 2.6 | 0.00 | 0.00 | 0.00 | 81 | 1010.7 |
| 20260508095450 | 44 | 237 | 1.7 | 2.6 | 0.00 | 0.00 | 0.00 | 81 | 1010.7 |
| 20260508094949 | 44 | 237 | 1.7 | 2.6 | 0.00 | 0.00 | 0.00 | 81 | 1010.8 |
| 20260508094717 | 44 | 237 | 0.9 | 2.6 | 0.00 | 0.00 | 0.00 | 81 | 1010.8 |
| 20260508093949 | 44 | 237 | 0.9 | 1.7 | 0.00 | 0.00 | 0.00 | 81 | 1010.8 |
| 20260508093450 | 44 | 237 | 0.9 | 1.7 | 0.00 | 0.00 | 0.00 | 81 | 1010.8 |
| 20260508092949 | 44 | 237 | 0.9 | 1.7 | 0.00 | 0.00 | 0.00 | 81 | 1010.8 |
| 20260508092450 | 44 | 237 | 0.9 | 1.7 | 0.00 | 0.00 | 0.00 | 81 | 1010.8 |
| 20260508091948 | 44 | 237 | 0.9 | 1.7 | 0.00 | 0.00 | 0.00 | 81 | 1010.8 |
| 20260508091449 | 44 | 237 | 0.9 | 1.7 | 0.00 | 0.00 | 0.00 | 81 | 1010.8 |
| 20260508090948 | 44 | 237 | 0.9 | 2.6 | 0.00 | 0.00 | 0.00 | 80 | 1010.7 |
| 20260508090449 | 44 | 237 | 0.9 | 2.6 | 0.00 | 0.00 | 0.00 | 81 | 1010.8 |
| 20260508085950 | 44 | 237 | 1.7 | 2.6 | 0.00 | 0.00 | 0.00 | 81 | 1010.8 |
| 20260508085448 | 44 | 237 | 1.7 | 2.6 | 0.00 | 0.00 | 0.00 | 81 | 1010.8 |
| 20260508084942 | 44 | 237 | 1.7 | 2.6 | 0.00 | 0.00 | 0.00 | 81 | 1010.8 |
| 20260508084434 | 44 | 237 | 1.7 | 2.6 | 0.00 | 0.00 | 0.00 | 81 | 1010.8 |
| 20260508084151 | 44 | 237 | 1.7 | 2.6 | 0.00 | 0.00 | 0.00 | 81 | 1010.8 |
| 20260508083423 | 44 | 237 | 0.9 | 2.6 | 0.00 | 0.00 | 0.00 | 81 | 1010.7 |
| 20260508082918 | 44 | 237 | 0.9 | 1.7 | 0.00 | 0.00 | 0.00 | 80 | 1010.8 |
| 20260508082410 | 44 | 237 | 0.9 | 1.7 | 0.00 | 0.00 | 0.00 | 81 | 1010.8 |
| 20260508081905 | 44 | 237 | 0.9 | 1.7 | 0.00 | 0.00 | 0.00 | 80 | 1010.8 |
| 20260508081359 | 43 | 237 | 0.9 | 1.7 | 0.00 | 0.00 | 0.00 | 81 | 1010.7 |
| 20260508080855 | 44 | 237 | 0.9 | 1.7 | 0.00 | 0.00 | 0.00 | 81 | 1010.6 |
| 20260508080349 | 44 | 237 | 0.9 | 1.7 | 0.00 | 0.00 | 0.00 | 81 | 1010.6 |
| 20260508075841 | 44 | 237 | 0.9 | 1.7 | 0.00 | 0.00 | 0.00 | 81 | 1010.7 |
| 20260508075336 | 44 | 237 | 0.9 | 1.7 | 0.00 | 0.00 | 0.00 | 81 | 1010.7 |
| 20260508074838 | 44 | 237 | 0.9 | 1.7 | 0.00 | 0.00 | 0.00 | 81 | 1010.8 |
| 20260508074338 | 44 | 237 | 0.9 | 1.7 | 0.00 | 0.00 | 0.00 | 80 | 1010.7 |
| 20260508073835 | 44 | 237 | 0.9 | 1.7 | 0.00 | 0.00 | 0.00 | 80 | 1010.7 |
| 20260508073333 | 44 | 237 | 0.9 | 1.7 | 0.00 | 0.00 | 0.00 | 80 | 1010.7 |
| 20260508072832 | 44 | 237 | 0.9 | 3.5 | 0.00 | 0.00 | 0.00 | 79 | 1010.7 |
| 20260508072333 | 44 | 237 | 0.9 | 3.5 | 0.00 | 0.00 | 0.00 | 79 | 1010.7 |
| 20260508071831 | 44 | 237 | 0.9 | 3.5 | 0.00 | 0.00 | 0.00 | 79 | 1010.7 |
| 20260508071556 | 45 | 237 | 1.7 | 2.6 | 0.00 | 0.00 | 0.00 | 78 | 1010.8 |
| 20260508070828 | 45 | 237 | 0.9 | 2.6 | 0.00 | 0.00 | 0.00 | 78 | 1010.8 |
| 20260508070329 | 45 | 237 | 0.9 | 2.6 | 0.00 | 0.00 | 0.00 | 78 | 1010.8 |
| 20260508065828 | 45 | 237 | 0.9 | 2.6 | 0.00 | 0.00 | 0.00 | 78 | 1010.9 |
| 20260508065328 | 45 | 237 | 0.9 | 1.7 | 0.00 | 0.00 | 0.00 | 79 | 1011.0 |
| 20260508065044 | 45 | 237 | 0.9 | 1.7 | 0.00 | 0.00 | 0.00 | 79 | 1011.0 |
| 20260508064550 | 45 | 237 | 0.9 | 4.3 | 0.00 | 0.00 | 0.00 | 79 | 1011.2 |
| 20260508064046 | 45 | 237 | 0.9 | 4.3 | 0.00 | 0.00 | 0.00 | 79 | 1011.2 |
| 20260508063324 | 45 | 237 | 1.7 | 3.5 | 0.00 | 0.00 | 0.00 | 79 | 1011.2 |
| 20260508062825 | 45 | 237 | 1.7 | 3.5 | 0.00 | 0.00 | 0.00 | 79 | 1011.2 |
| 20260508062546 | 45 | 237 | 1.7 | 3.5 | 0.00 | 0.00 | 0.00 | 78 | 1011.3 |
| 20260508061819 | 45 | 237 | 1.7 | 3.5 | 0.00 | 0.00 | 0.00 | 78 | 1011.5 |
| 20260508061313 | 46 | 237 | 1.7 | 2.6 | 0.00 | 0.00 | 0.00 | 78 | 1011.5 |
| 20260508060807 | 46 | 237 | 1.7 | 2.6 | 0.00 | 0.00 | 0.00 | 77 | 1011.4 |
| 20260508060301 | 46 | 237 | 1.7 | 2.6 | 0.00 | 0.00 | 0.00 | 77 | 1011.5 |
| 20260508055755 | 46 | 237 | 1.7 | 3.5 | 0.00 | 0.00 | 0.00 | 76 | 1011.5 |
| 20260508055250 | 46 | 237 | 1.7 | 3.5 | 0.00 | 0.00 | 0.00 | 76 | 1011.6 |
| 20260508054749 | 46 | 237 | 1.7 | 2.6 | 0.00 | 0.00 | 0.00 | 75 | 1011.5 |
| 20260508054246 | 46 | 237 | 1.7 | 3.5 | 0.00 | 0.00 | 0.00 | 75 | 1011.5 |
| 20260508053745 | 46 | 237 | 0.9 | 3.5 | 0.00 | 0.00 | 0.00 | 75 | 1011.5 |
| 20260508053243 | 47 | 237 | 1.7 | 3.5 | 0.00 | 0.00 | 0.00 | 75 | 1011.5 |
| 20260508052740 | 47 | 237 | 1.7 | 3.5 | 0.00 | 0.00 | 0.00 | 74 | 1011.4 |
| 20260508052459 | 47 | 237 | 1.7 | 3.5 | 0.00 | 0.00 | 0.00 | 74 | 1011.4 |
| 20260508051740 | 47 | 237 | 1.7 | 2.6 | 0.00 | 0.00 | 0.00 | 74 | 1011.5 |
| 20260508051238 | 47 | 237 | 0.9 | 1.7 | 0.00 | 0.00 | 0.00 | 73 | 1011.5 |
| 20260508050737 | 47 | 237 | 0.9 | 1.7 | 0.00 | 0.00 | 0.00 | 74 | 1011.5 |
| 20260508050234 | 47 | 237 | 1.7 | 2.6 | 0.00 | 0.00 | 0.00 | 73 | 1011.5 |
| 20260508045953 | 47 | 237 | 1.7 | 2.6 | 0.00 | 0.00 | 0.00 | 73 | 1011.4 |
| 20260508045235 | 47 | 237 | 1.7 | 2.6 | 0.00 | 0.00 | 0.00 | 72 | 1011.4 |
| 20260508044733 | 47 | 237 | 1.7 | 2.6 | 0.00 | 0.00 | 0.00 | 72 | 1011.5 |
| 20260508044230 | 47 | 237 | 1.7 | 2.6 | 0.00 | 0.00 | 0.00 | 71 | 1011.4 |